Date String (YYYY-MM-DD hh:mm:ss) UTC,Instrument flags,absolute air pressure of the measurement (hPa),sample flow rate (lpm),inlet stack bypass flow (lpm),air temperature of the measurement (°C),ambient temperature measured by the external sensor (°C),aerosol sample conditioner tube jacket temperature (°C),OPC LED temperature (°C),internal box temperature (°C),relative humidity of the measurement (%),span deviation,mass concentration of particles derived from Lorenz-Mie calculation of OPC scattering (μg/m³),mass concentration of particles derived from Lorenz-Mie calculation of OPC scattering (μg/m³),mass concentration of particles derived from Lorenz-Mie calculation of OPC scattering (μg/m³)
DateTimeUTC,F1_M11,P_M11,Q1_M11,Q2_M11,T1_M11,T2_M11,T3_M11,T4_M11,T5_M11,U1_M11,ZSPAN_M11,X0_M11,X2_M11,X1_M11
2023-09-11 07:00:00,SystemResetWarning,0838.0,5.00,000.00,029.0,025.3,000.0,037.2,030.1,32.3,-000.3,0009.40,0005.81,0005.45
2023-09-11 07:01:00,SystemResetWarning,0838.0,5.00,000.00,028.9,024.6,000.0,037.1,030.0,32.2,-000.6,0009.40,0005.79,0005.40
2023-09-11 07:02:00,SystemResetWarning,0838.0,5.01,000.00,028.7,024.6,000.0,037.1,029.8,32.4,-000.7,0009.47,0005.81,0005.41
2023-09-11 07:03:00,SystemResetWarning,0838.0,5.01,000.00,028.6,025.0,000.0,037.1,029.7,32.7,-000.7,0009.41,0005.79,0005.40
2023-09-11 07:04:00,SystemResetWarning,0837.9,5.00,000.00,028.5,025.3,000.0,037.1,029.7,32.9,-000.7,0009.40,0005.78,0005.39
2023-09-11 07:05:00,SystemResetWarning,0837.9,5.00,000.00,028.5,025.7,000.0,037.0,029.8,33.0,-000.8,0009.22,0005.75,0005.39
2023-09-11 07:06:00,SystemResetWarning,0837.9,5.00,000.00,028.5,026.0,000.0,037.0,029.8,33.1,-001.1,0009.01,0005.73,0005.40
2023-09-11 07:07:00,SystemResetWarning,0837.8,5.00,000.00,028.5,026.3,000.0,037.0,029.8,33.2,-001.0,0008.93,0005.71,0005.40
2023-09-11 07:08:00,SystemResetWarning,0837.8,5.00,000.00,028.5,026.5,000.0,037.0,029.9,33.3,-001.2,0008.89,0005.67,0005.39
2023-09-11 07:09:00,SystemResetWarning,0837.8,5.00,000.00,028.5,026.7,000.0,037.0,029.9,33.4,-001.5,0008.92,0005.68,0005.38
2023-09-11 07:10:00,SystemResetWarning,0837.8,5.00,000.00,028.5,026.8,000.0,037.0,029.9,33.3,-001.4,0008.84,0005.64,0005.35
2023-09-11 07:11:00,SystemResetWarning,0837.8,4.99,000.00,028.5,026.9,000.0,037.0,030.0,33.3,-001.1,0008.77,0005.61,0005.33
2023-09-11 07:12:00,SystemResetWarning,0837.8,5.00,000.00,028.5,027.0,000.0,037.0,030.0,33.3,-000.9,0008.72,0005.59,0005.33
2023-09-11 07:13:00,SystemResetWarning,0837.8,5.00,000.00,028.5,027.1,000.0,037.0,030.1,33.3,-000.8,0008.74,0005.60,0005.33
2023-09-11 07:14:00,SystemResetWarning,0837.8,5.00,000.00,028.5,027.2,000.0,037.0,030.1,33.2,-000.9,0008.78,0005.62,0005.34
2023-09-11 07:15:00,SystemResetWarning,0837.8,5.00,000.00,028.6,027.2,000.0,037.0,030.1,33.2,-001.1,0008.82,0005.65,0005.36
2023-09-11 07:16:00,SystemResetWarning,0837.8,5.00,000.00,028.6,027.3,000.0,037.0,030.1,33.1,-001.0,0008.82,0005.66,0005.38
2023-09-11 07:17:00,SystemResetWarning,0837.8,5.00,000.00,028.6,027.3,000.0,037.0,030.2,33.1,-000.5,0008.84,0005.68,0005.37
2023-09-11 07:18:00,SystemResetWarning,0837.8,5.00,000.00,028.6,027.4,000.0,037.0,030.2,33.1,-000.4,0008.82,0005.66,0005.36
2023-09-11 07:19:00,SystemResetWarning,0837.7,5.00,000.00,028.6,027.4,000.0,037.0,030.3,33.1,-000.3,0008.91,0005.69,0005.37
2023-09-11 07:20:00,SystemResetWarning,0837.8,5.00,000.00,028.7,027.5,000.0,037.0,030.3,33.0,0000.2,0008.92,0005.71,0005.39
2023-09-11 07:21:00,SystemResetWarning,0837.8,5.00,000.00,028.7,027.5,000.0,037.0,030.4,33.0,0000.0,0008.99,0005.75,0005.44
2023-09-11 07:22:00,SystemResetWarning,0837.8,5.00,000.00,028.7,027.5,000.0,037.0,030.4,33.0,-000.1,0009.13,0005.83,0005.49
2023-09-11 07:23:00,SystemResetWarning,0837.7,5.00,000.00,028.7,027.5,000.0,037.1,030.4,33.0,-000.3,0009.17,0005.86,0005.53
2023-09-11 07:24:00,SystemResetWarning,0837.8,4.99,000.00,028.8,027.6,000.0,037.1,030.4,33.0,-000.1,0009.27,0005.91,0005.58
2023-09-11 07:25:00,SystemResetWarning,0837.8,5.00,000.00,028.8,027.6,000.0,037.1,030.5,33.0,-000.1,0009.38,0005.95,0005.61
2023-09-11 07:26:00,SystemResetWarning,0837.8,5.02,000.00,028.8,027.6,000.0,037.1,030.5,32.9,0000.2,0009.58,0006.01,0005.66
2023-09-11 07:27:00,SystemResetWarning,0837.8,5.01,000.00,028.8,027.6,000.0,037.1,030.5,32.8,0000.4,0009.62,0006.05,0005.71
2023-09-11 07:28:00,SystemResetWarning,0837.8,4.99,000.00,028.9,027.6,000.0,037.1,030.5,32.7,0000.4,0009.59,0006.03,0005.70
2023-09-11 07:29:00,SystemResetWarning,0837.8,5.00,000.00,028.9,027.7,000.0,037.2,030.5,32.7,0000.2,0009.62,0006.01,0005.67
2023-09-11 07:30:00,SystemResetWarning,0837.8,4.99,000.00,028.9,027.7,000.0,037.2,030.6,32.6,0000.2,0009.53,0005.98,0005.64
2023-09-11 07:31:00,SystemResetWarning,0837.8,5.00,000.00,028.9,027.6,000.0,037.2,030.5,32.6,-000.0,0009.43,0005.93,0005.61
2023-09-11 07:32:00,SystemResetWarning,0837.8,5.01,000.00,028.9,026.0,000.0,037.1,030.2,32.5,-000.2,0009.31,0005.84,0005.53
2023-09-11 07:33:00,SystemResetWarning,0837.7,5.00,000.00,028.8,024.8,000.0,037.0,030.0,32.6,-000.3,0009.08,0005.71,0005.43
2023-09-11 07:34:00,SystemResetWarning,0837.7,5.00,000.00,028.7,024.5,000.0,037.0,029.8,32.8,-000.6,0008.92,0005.59,0005.31
2023-09-11 07:35:00,SystemResetWarning,0837.7,5.00,000.00,028.5,024.7,000.0,037.0,029.6,33.1,-001.1,0008.77,0005.46,0005.19
2023-09-11 07:36:00,SystemResetWarning,0837.7,5.01,000.00,028.4,025.1,000.0,037.0,029.6,33.3,-001.1,0008.57,0005.32,0005.07
2023-09-11 07:37:00,SystemResetWarning,0837.7,4.99,000.00,028.4,025.5,000.0,036.9,029.7,33.3,-001.5,0008.40,0005.19,0004.94
2023-09-11 07:38:00,SystemResetWarning,0837.7,4.99,000.00,028.4,025.8,000.0,036.9,029.7,33.3,-001.5,0008.23,0005.06,0004.82
2023-09-11 07:39:00,SystemResetWarning,0837.7,5.01,000.00,028.4,026.1,000.0,036.9,029.7,33.3,-001.9,0008.22,0005.03,0004.78
2023-09-11 07:40:00,SystemResetWarning,0837.7,5.01,000.00,028.4,026.3,000.0,036.9,029.8,33.3,-002.0,0008.24,0005.03,0004.76
2023-09-11 07:41:00,SystemResetWarning,0837.7,4.99,000.00,028.4,026.5,000.0,036.9,029.8,33.3,-002.0,0008.18,0005.01,0004.72
2023-09-11 07:42:00,SystemResetWarning,0837.7,4.99,000.00,028.4,026.7,000.0,036.9,029.9,33.3,-002.1,0008.57,0004.97,0004.68
2023-09-11 07:43:00,SystemResetWarning,0837.7,5.00,000.00,028.4,026.8,000.0,036.9,029.9,33.2,-001.9,0008.79,0004.98,0004.67
2023-09-11 07:44:00,SystemResetWarning,0837.7,5.00,000.00,028.4,026.9,000.0,036.9,029.9,33.1,-001.4,0008.78,0004.98,0004.66
2023-09-11 07:45:00,SystemResetWarning,0837.7,5.01,000.00,028.4,027.0,000.0,036.9,030.0,33.1,-001.0,0008.73,0004.97,0004.66
2023-09-11 07:46:00,SystemResetWarning,0837.7,5.01,000.00,028.5,027.1,000.0,036.9,030.0,33.0,-000.4,0008.69,0004.98,0004.68
2023-09-11 07:47:00,SystemResetWarning,0837.7,5.01,000.00,028.5,027.2,000.0,036.9,030.1,32.9,-000.3,0008.71,0005.02,0004.71
2023-09-11 07:48:00,SystemResetWarning,0837.6,4.99,000.00,028.5,027.3,000.0,036.9,030.1,32.8,-000.3,0008.62,0005.05,0004.74
2023-09-11 07:49:00,SystemResetWarning,0837.6,4.99,000.00,028.5,027.3,000.0,036.9,030.2,32.7,-000.3,0008.64,0005.07,0004.75
2023-09-11 07:50:00,SystemResetWarning,0837.6,5.00,000.00,028.6,027.4,000.0,036.9,030.2,32.4,-000.6,0008.68,0005.07,0004.74
2023-09-11 07:51:00,SystemResetWarning,0837.6,5.00,000.00,028.6,027.4,000.0,036.9,030.2,32.3,-000.5,0008.66,0005.06,0004.76
2023-09-11 07:52:00,SystemResetWarning,0837.6,5.00,000.00,028.6,027.5,000.0,036.9,030.3,32.3,-000.4,0008.72,0005.06,0004.75
2023-09-11 07:53:00,SystemResetWarning,0837.6,5.00,000.00,028.6,027.5,000.0,037.0,030.3,32.2,-000.4,0008.38,0005.04,0004.73
2023-09-11 07:54:00,SystemResetWarning,0837.6,5.01,000.00,028.7,027.5,000.0,037.0,030.3,32.1,-000.7,0008.02,0005.00,0004.71
2023-09-11 07:55:00,SystemResetWarning,0837.6,5.00,000.00,028.7,027.6,000.0,037.0,030.3,32.2,-000.8,0008.00,0004.99,0004.70
2023-09-11 07:56:00,SystemResetWarning,0837.5,5.00,000.00,028.7,027.6,000.0,037.0,030.4,32.1,-000.7,0008.04,0005.02,0004.72
2023-09-11 07:57:00,SystemResetWarning,0837.6,5.00,000.00,028.7,027.6,000.0,037.0,030.4,32.0,-001.0,0008.05,0005.02,0004.72
2023-09-11 07:58:00,SystemResetWarning,0837.6,5.00,000.00,028.8,027.7,000.0,037.0,030.5,31.9,-001.1,0008.09,0005.03,0004.72
2023-09-11 07:59:00,SystemResetWarning,0837.6,5.00,000.00,028.8,027.7,000.0,037.1,030.5,31.9,-000.7,0008.14,0005.04,0004.73
